LJX003R EDFE-LEPA

Flight info

Callsign LJX003R
Flight time N/A
Altitude 40000
Route NOKDI Y163 NATOR N850 ODINA DCT BORDI DCT RUBAS DCT RIXOT
Aircraft C25C/M-SDE2E3FGHRWXY/LB1

Departure

Time 2026-05-08 08:33
Airport Frankfurt-Egelsbach Airport (EDFE)

Arrival

Time N/A
Airport Palma de Mallorca Airport (LEPA)
Time Latitude Longitude Altitude Speed Heading
2026-05-08 08:06 49.96237 8.64236 381 ft 0 kts 264°
2026-05-08 08:30 49.96237 8.64233 381 ft 2 kts 264°
2026-05-08 08:30 49.96180 8.64174 383 ft 4 kts 224°
2026-05-08 08:31 49.96169 8.64144 384 ft 4 kts 251°
2026-05-08 08:31 49.96162 8.64066 383 ft 11 kts 264°
2026-05-08 08:31 49.96154 8.63904 378 ft 19 kts 265°
2026-05-08 08:31 49.96143 8.63687 375 ft 20 kts 265°
2026-05-08 08:32 49.96133 8.63459 370 ft 22 kts 265°
2026-05-08 08:32 49.96115 8.63245 368 ft 11 kts 233°
2026-05-08 08:32 49.96068 8.63180 368 ft 9 kts 205°
2026-05-08 08:32 49.96042 8.63225 368 ft 11 kts 91°
2026-05-08 08:33 49.96062 8.63692 373 ft 93 kts 86°
2026-05-08 08:33 49.96130 8.65216 451 ft 182 kts 86°
2026-05-08 08:33 49.96225 8.67338 1335 ft 213 kts 85°
2026-05-08 08:33 49.96070 8.69797 2256 ft 253 kts 111°
2026-05-08 08:34 49.94897 8.71929 3355 ft 277 kts 152°
2026-05-08 08:34 49.92983 8.72684 4529 ft 294 kts 178°
2026-05-08 08:34 49.90945 8.72153 5781 ft 304 kts 202°
2026-05-08 08:34 49.89344 8.70171 6999 ft 283 kts 235°
2026-05-08 08:35 49.88769 8.67482 8018 ft 253 kts 269°
2026-05-08 08:35 49.89233 8.65002 8874 ft 232 kts 302°
2026-05-08 08:35 49.90143 8.63067 9612 ft 214 kts 296°
2026-05-08 08:35 49.90311 8.60905 10224 ft 202 kts 250°
2026-05-08 08:36 49.89427 8.59229 10427 ft 214 kts 208°
2026-05-08 08:36 49.87947 8.58479 10479 ft 239 kts 190°
2026-05-08 08:36 49.86194 8.58642 10820 ft 267 kts 170°
2026-05-08 08:36 49.84257 8.59005 11151 ft 293 kts 178°
2026-05-08 08:37 49.82139 8.58924 11353 ft 318 kts 185°
2026-05-08 08:37 49.79851 8.58534 11437 ft 343 kts 186°
2026-05-08 08:37 49.77391 8.58238 11491 ft 364 kts 184°
2026-05-08 08:37 49.74796 8.58020 11540 ft 381 kts 183°
2026-05-08 08:38 49.72113 8.57777 11726 ft 391 kts 184°
2026-05-08 08:38 49.69334 8.57478 11761 ft 410 kts 184°
2026-05-08 08:38 49.66503 8.57189 12190 ft 413 kts 184°
2026-05-08 08:38 49.63672 8.56901 12879 ft 402 kts 184°
2026-05-08 08:39 49.60911 8.56640 13610 ft 392 kts 184°
2026-05-08 08:39 49.58219 8.56352 14333 ft 383 kts 184°
2026-05-08 08:39 49.55557 8.56091 14730 ft 384 kts 184°
2026-05-08 08:39 49.52871 8.55824 14914 ft 390 kts 184°
2026-05-08 08:40 49.50194 8.55562 15557 ft 382 kts 184°
2026-05-08 08:40 49.47574 8.55291 16265 ft 372 kts 184°
2026-05-08 08:40 49.45024 8.55044 17056 ft 362 kts 184°
2026-05-08 08:40 49.42561 8.54793 17917 ft 349 kts 184°
2026-05-08 08:41 49.40180 8.54564 18799 ft 336 kts 184°
2026-05-08 08:41 49.37889 8.54329 19646 ft 326 kts 184°
2026-05-08 08:41 49.35621 8.54106 20154 ft 326 kts 184°
2026-05-08 08:41 49.33359 8.53879 20690 ft 325 kts 184°
2026-05-08 08:42 49.31106 8.53657 21227 ft 323 kts 184°
2026-05-08 08:42 49.28866 8.53432 21766 ft 322 kts 184°
2026-05-08 08:42 49.26665 8.53219 22297 ft 320 kts 184°
2026-05-08 08:42 49.24452 8.52998 22836 ft 318 kts 184°
2026-05-08 08:43 49.22251 8.52782 23377 ft 316 kts 184°
2026-05-08 08:43 49.20070 8.52564 23914 ft 314 kts 184°
2026-05-08 08:43 49.17897 8.52353 24454 ft 312 kts 184°
2026-05-08 08:43 49.15714 8.52135 24996 ft 318 kts 184°
2026-05-08 08:44 49.13492 8.51919 25542 ft 323 kts 184°
2026-05-08 08:44 49.11232 8.51694 26090 ft 327 kts 184°
2026-05-08 08:44 49.08948 8.51471 26639 ft 331 kts 184°
2026-05-08 08:44 49.06641 8.51245 27189 ft 334 kts 184°
2026-05-08 08:45 49.04314 8.51014 27739 ft 336 kts 184°
2026-05-08 08:45 49.01972 8.50788 28289 ft 337 kts 184°
2026-05-08 08:45 48.99631 8.50554 28836 ft 338 kts 184°
2026-05-08 08:45 48.97283 8.50329 29382 ft 338 kts 184°
2026-05-08 08:46 48.94934 8.50097 29927 ft 338 kts 184°
2026-05-08 08:46 48.92586 8.49869 30471 ft 338 kts 184°
2026-05-08 08:46 48.90242 8.49641 31014 ft 337 kts 184°
2026-05-08 08:46 48.87903 8.49410 31557 ft 336 kts 184°
2026-05-08 08:47 48.85570 8.49186 32099 ft 334 kts 184°
2026-05-08 08:47 48.83259 8.48960 32638 ft 332 kts 184°
2026-05-08 08:47 48.80959 8.48737 33177 ft 330 kts 184°
2026-05-08 08:47 48.78668 8.48516 33715 ft 328 kts 184°
2026-05-08 08:48 48.76403 8.48294 34250 ft 325 kts 184°
2026-05-08 08:48 48.74156 8.48079 34785 ft 322 kts 184°
2026-05-08 08:48 48.71958 8.47864 35311 ft 319 kts 184°
2026-05-08 08:48 48.69755 8.47652 35843 ft 315 kts 184°
2026-05-08 08:49 48.67578 8.47443 36371 ft 312 kts 184°
2026-05-08 08:49 48.65427 8.47232 36899 ft 308 kts 184°
2026-05-08 08:49 48.63305 8.47030 37424 ft 304 kts 184°
2026-05-08 08:49 48.61214 8.46828 37946 ft 299 kts 184°
2026-05-08 08:50 48.59152 8.46628 38467 ft 294 kts 184°
2026-05-08 08:50 48.57124 8.46436 38984 ft 290 kts 184°
2026-05-08 08:50 48.55133 8.46241 39499 ft 284 kts 184°
2026-05-08 08:50 48.53170 8.46055 39909 ft 284 kts 184°
2026-05-08 08:51 48.51163 8.45859 39984 ft 295 kts 184°
2026-05-08 08:51 48.49068 8.45652 39998 ft 308 kts 184°
2026-05-08 08:51 48.46886 8.45446 40013 ft 320 kts 184°
2026-05-08 08:51 48.44617 8.45230 40012 ft 332 kts 184°
2026-05-08 08:52 48.42274 8.45004 40014 ft 343 kts 184°
2026-05-08 08:52 48.39853 8.44775 40015 ft 354 kts 184°
2026-05-08 08:52 48.34813 8.44291 40014 ft 372 kts 184°
2026-05-08 08:53 48.29539 8.43792 40012 ft 387 kts 184°
2026-05-08 08:53 48.24067 8.43272 40010 ft 400 kts 184°
2026-05-08 08:54 48.19393 8.42828 40014 ft 409 kts 184°
2026-05-08 08:54 48.13643 8.42284 40010 ft 418 kts 184°
2026-05-08 08:55 48.07786 8.41729 40011 ft 425 kts 184°
2026-05-08 08:55 48.01846 8.41168 40011 ft 430 kts 184°
2026-05-08 08:56 47.95841 8.40604 40010 ft 434 kts 184°
2026-05-08 08:56 47.89789 8.40037 40010 ft 437 kts 184°
2026-05-08 08:57 47.83694 8.39956 40010 ft 440 kts 173°
2026-05-08 08:57 47.77704 8.41631 40003 ft 442 kts 168°
2026-05-08 08:58 47.71579 8.43073 39994 ft 443 kts 172°